Theta_e
313 319 322 322 319 319 320 322 322 322 322 323 324 323 323 323 324 324 324 325 325 326 326 326 327 338 341 342 343 344 344 342 344 345 343 346 345 343 343 343 343 341 339 336
314 314 319 321 322 323 322 322 323 322 322 323 323 323 323 323 324 324 324 324 325 325 326 326 327 331 339 342 342 343 343 343 342 341 343 341 344 343 341 342 341 342 340 339
312 313 316 321 323 324 324 323 322 323 323 323 323 323 323 323 323 325 325 325 325 325 326 326 327 327 335 338 341 341 343 343 342 340 343 343 343 344 342 342 341 339 330 327
312 311 314 319 321 324 325 323 323 322 323 324 324 325 324 323 323 323 324 325 325 325 325 326 326 327 327 334 337 340 341 342 343 342 341 342 341 341 341 340 339 335 329 326
313 317 317 318 321 321 324 323 323 323 323 322 322 324 323 324 323 323 323 324 326 326 325 326 326 326 327 327 334 340 341 340 343 342 342 339 341 339 340 340 337 334 331 331
307 308 311 317 320 320 320 321 322 323 322 325 323 323 322 321 323 324 323 324 325 326 325 326 326 326 326 328 332 339 341 341 342 342 342 342 338 340 341 339 338 334 333 334
309 310 310 312 315 319 320 322 326 327 326 325 322 323 323 322 322 323 322 324 325 326 325 325 326 327 327 328 330 337 342 341 341 341 342 341 340 338 340 339 338 336 336 335
312 309 312 312 314 318 320 321 326 329 326 326 323 325 323 322 321 323 324 325 324 325 325 324 327 327 327 327 328 330 338 342 341 341 339 340 340 339 339 339 339 338 336 334
305 313 313 314 315 315 317 320 320 324 324 325 323 323 323 323 322 322 322 324 323 325 324 324 324 326 327 327 327 328 330 341 345 339 335 339 341 342 340 340 340 339 338 336
306 305 313 317 316 316 318 318 321 321 328 328 325 323 325 323 323 323 323 322 322 323 323 324 325 324 325 326 326 327 328 328 340 346 337 331 339 343 342 342 343 342 340 339
305 306 311 317 319 321 320 319 322 318 322 327 326 324 322 322 322 323 323 323 323 323 323 323 323 326 326 326 326 326 327 328 329 346 345 343 343 344 343 343 343 343 341 340
304 304 307 315 311 311 317 317 318 322 323 325 325 323 321 321 322 321 323 323 323 323 324 324 324 326 327 326 326 327 327 328 328 330 343 344 344 343 343 342 343 343 341 340
305 305 306 313 316 307 309 308 308 310 316 324 326 324 322 324 325 323 324 323 323 323 323 326 326 326 326 325 325 327 327 327 327 329 334 342 343 340 340 341 343 343 341 340
305 306 304 305 303 307 308 308 309 309 316 319 324 323 320 319 322 323 321 322 324 325 327 326 327 326 326 326 327 328 329 329 329 331 333 338 341 341 339 339 344 343 341 339
305 303 303 304 305 306 307 308 308 310 310 312 317 320 318 317 320 322 320 319 317 319 324 328 328 328 327 329 334 332 331 331 331 331 332 335 336 341 339 343 344 344 342 339
307 306 307 306 306 306 306 306 307 307 309 310 310 313 313 320 321 319 318 318 317 315 318 323 326 326 326 328 330 337 338 337 336 335 336 336 339 340 339 343 343 343 339 338
304 303 305 305 305 305 304 306 306 306 307 309 310 311 312 313 315 316 316 316 316 315 314 316 322 326 326 326 328 330 332 335 337 339 338 341 341 339 337 341 342 342 339 338
302 301 301 301 305 302 305 305 306 306 307 307 308 309 309 310 310 312 314 315 312 313 314 314 318 325 325 323 323 326 328 328 327 326 330 337 340 340 338 341 342 340 338 337
302 302 298 300 304 304 305 304 304 306 307 308 308 309 309 309 309 309 313 311 312 312 313 316 315 317 323 324 324 324 326 327 327 324 328 330 334 336 338 338 338 338 335 332
303 302 303 300 302 302 305 305 306 305 305 306 307 307 308 308 309 309 308 310 309 309 311 312 313 315 320 321 323 323 322 322 321 322 323 327 328 332 332 333 332 331 331 328
302 302 304 303 304 304 305 305 305 305 305 307 307 306 307 307 307 306 306 306 307 308 307 309 311 314 317 319 322 322 322 321 321 321 320 323 326 328 330 330 328 328 324 325
302 304 306 304 306 303 306 307 306 306 305 306 306 306 306 306 307 306 306 306 306 306 307 308 310 313 316 316 318 321 321 321 322 322 321 320 322 325 327 327 325 321 323 323
305 305 307 305 303 304 306 306 306 306 306 306 305 306 306 305 305 305 305 305 306 306 308 310 308 311 310 313 314 317 320 321 321 322 321 320 321 324 324 323 321 319 319 321
303 304 306 307 306 307 306 306 307 306 306 306 306 306 306 306 306 305 305 305 305 306 307 308 309 311 311 311 311 313 315 320 321 321 321 320 320 322 321 319 319 318 317 317
301 302 302 303 304 305 306 307 306 306 306 306 306 305 305 305 305 305 305 305 305 305 305 306 305 307 307 307 308 308 311 318 322 322 321 319 318 319 319 318 317 317 318 320
301 301 301 301 302 304 305 305 305 305 305 305 305 305 305 305 305 304 304 304 305 305 305 305 305 305 305 305 306 306 310 312 318 321 320 319 318 317 317 316 314 313 314 315
Wind_Speed
25 8 18 30 31 31 23 24 23 23 21 20 25 20 16 20 26 24 24 33 36 35 35 36 31 45 43 42 44 45 44 38 43 42 42 41 41 42 39 38 38 36 33 31
14 19 19 20 24 27 30 27 28 17 21 21 17 25 17 16 24 33 35 30 39 42 39 37 39 37 47 48 45 48 46 43 43 45 46 49 42 44 43 43 43 41 40 39
24 12 18 23 22 25 29 31 33 27 17 24 23 23 15 16 28 36 41 39 35 43 46 43 41 43 46 50 51 51 50 47 43 43 45 45 42 39 41 42 44 43 37 38
10 14 23 27 25 23 27 31 29 24 18 16 25 19 19 19 22 21 30 38 36 33 43 49 47 46 50 51 52 53 51 50 47 45 46 49 52 54 54 53 48 42 36 36
6 9 23 28 33 26 27 17 25 22 17 21 19 9 14 25 22 29 19 31 34 35 32 46 48 48 48 54 56 57 56 53 52 48 45 46 51 52 45 46 46 41 38 36
20 13 3 8 20 27 22 22 20 22 22 20 23 20 21 20 29 26 14 23 31 34 36 43 42 47 46 55 56 59 60 57 54 50 48 46 48 52 46 45 45 42 42 40
10 22 9 4 3 17 18 10 7 12 10 16 30 21 24 24 24 13 12 29 36 39 40 41 48 41 44 47 54 55 58 58 55 53 52 49 45 51 50 49 46 45 46 46
5 10 21 13 9 5 19 10 7 13 15 14 17 12 29 31 9 27 35 38 29 41 49 44 47 47 45 45 49 55 57 60 59 56 53 51 47 46 52 49 48 48 48 47
5 6 3 17 13 14 6 8 13 14 13 6 11 10 22 19 22 22 17 28 27 22 37 49 50 53 55 56 54 56 60 59 62 59 54 54 52 49 51 50 50 50 49 47
1 8 13 14 11 15 12 9 11 6 7 14 10 25 21 26 30 24 20 18 33 37 27 22 35 54 55 61 59 55 60 62 61 62 58 56 55 54 51 51 50 51 51 49
1 3 6 11 8 11 7 6 5 1 4 7 11 18 35 7 20 19 23 40 41 40 45 42 37 24 35 51 55 51 55 57 62 54 60 59 58 56 54 50 51 52 53 52
2 0 5 6 9 8 3 5 5 6 5 9 2 16 13 22 5 9 22 39 48 45 46 42 37 32 29 29 31 42 49 50 51 58 58 59 60 53 49 48 51 53 55 53
1 1 6 7 5 9 7 2 1 3 1 8 10 18 2 12 11 15 8 21 39 42 35 25 28 25 24 22 23 27 36 40 43 48 54 53 53 51 46 47 50 54 55 54
1 2 5 4 7 5 3 3 2 2 2 0 16 15 10 14 15 16 24 25 24 21 23 23 23 24 22 18 17 21 29 35 39 41 48 46 48 47 48 50 53 56 52 52
4 4 4 4 7 8 8 8 7 3 1 3 6 13 8 9 9 14 19 27 26 27 22 16 15 15 15 11 11 21 26 30 34 39 42 44 46 47 48 50 53 52 49 47
3 3 4 5 11 12 8 15 13 11 9 12 12 14 7 10 11 14 20 23 22 27 25 14 7 8 7 7 11 18 27 29 31 34 38 44 47 48 46 48 49 49 43 43
5 2 2 3 5 5 7 15 15 8 8 11 11 9 7 11 5 4 17 17 25 22 23 25 7 4 2 8 10 13 14 15 18 23 25 32 39 42 43 47 46 46 44 44
8 4 3 4 3 4 8 8 6 14 11 15 14 13 7 5 17 7 6 13 30 30 25 23 19 4 6 7 9 12 11 11 12 19 28 28 34 38 40 44 46 47 46 47
12 4 1 2 3 9 14 10 8 6 8 10 13 12 9 5 7 12 7 4 12 17 20 21 19 15 10 11 11 11 12 11 10 12 23 28 30 34 41 44 48 48 50 51
11 8 5 1 2 5 6 8 4 4 5 8 6 3 3 6 2 4 7 9 5 13 13 25 25 20 13 15 19 17 14 10 9 12 17 25 29 34 41 47 47 49 51 54
3 2 11 9 5 8 7 14 21 6 5 7 4 6 6 3 4 4 10 4 7 9 13 10 18 23 23 10 19 22 21 18 14 14 14 21 30 33 37 42 49 50 50 48
9 4 4 4 6 8 13 1 0 2 11 13 10 10 8 6 7 8 5 8 9 12 18 9 16 18 20 21 9 25 26 22 24 21 19 21 25 34 39 46 48 49 53 51
4 7 2 7 6 3 10 3 10 17 11 10 16 16 14 10 10 9 8 10 14 14 16 15 17 19 13 13 9 10 25 31 29 28 26 26 27 34 41 46 50 51 52 53
4 5 3 2 5 7 17 22 18 23 22 15 19 20 18 18 17 17 14 14 19 18 17 17 19 23 19 14 15 12 17 28 35 35 31 29 32 37 43 47 51 54 54 53
5 7 6 8 8 10 7 10 10 19 19 18 21 12 15 19 22 23 21 19 20 22 22 26 22 22 25 26 22 17 16 16 32 37 35 31 32 36 43 47 51 54 54 56
4 7 4 8 14 14 10 8 12 14 19 17 19 21 21 22 21 23 24 21 20 23 23 26 31 32 28 28 26 21 20 14 23 34 37 34 33 37 43 48 49 51 52 51
Wind_Direction
262 257 220 204 205 217 222 227 230 236 230 214 236 244 219 207 217 239 230 226 231 231 225 223 220 208 199 202 210 208 205 211 211 209 203 201 203 208 212 216 217 220 223 217
257 256 263 236 219 221 216 226 237 242 215 235 235 235 233 220 218 224 237 231 222 226 223 221 213 210 203 200 208 211 210 207 211 214 211 205 206 213 217 216 221 222 227 227
234 255 285 258 233 223 227 215 229 227 223 219 240 250 233 234 233 224 225 231 225 217 219 218 214 216 208 204 206 212 211 211 212 216 212 208 208 212 216 223 225 228 220 219
242 233 245 266 248 227 230 222 232 232 239 225 213 239 236 236 243 232 222 223 226 222 224 218 215 215 215 211 212 211 212 213 214 213 213 212 208 211 218 219 226 228 222 212
209 224 215 227 243 246 243 233 236 235 236 238 243 242 232 229 233 232 235 214 219 232 232 212 212 217 219 216 214 210 211 213 213 214 219 218 214 220 217 220 220 223 225 218
251 289 287 222 240 238 268 280 276 236 232 242 234 231 244 232 230 228 216 217 223 230 240 230 216 220 219 217 211 209 208 210 212 215 219 221 223 218 210 219 219 218 220 219
260 235 234 248 299 233 246 262 231 238 220 219 225 226 237 230 236 224 214 224 222 230 241 241 222 213 211 211 209 210 209 210 214 216 219 222 227 221 217 218 220 214 215 218
252 244 198 196 192 238 214 225 230 215 208 212 237 226 230 233 265 223 228 244 242 232 235 232 222 214 213 212 212 213 212 211 213 216 222 224 226 222 215 217 219 220 221 221
332 267 239 183 186 167 188 212 240 261 283 244 208 226 276 253 252 240 232 230 226 232 238 232 231 227 222 218 217 214 216 214 212 214 222 225 223 222 215 215 220 223 225 225
276 290 260 176 179 193 213 165 220 197 206 220 215 217 237 221 231 242 254 256 252 257 254 233 234 232 228 224 222 220 218 220 216 210 218 225 224 222 218 208 217 223 225 225
209 250 313 193 192 163 175 221 191 164 213 208 219 235 226 214 236 220 233 243 255 255 256 261 259 229 227 228 222 223 221 217 218 209 214 220 222 217 215 207 213 225 224 224
192 251 289 289 54 33 78 207 222 228 166 211 234 253 195 264 281 245 231 230 232 239 248 246 250 224 217 213 215 221 223 218 219 219 213 218 222 219 217 216 213 221 224 225
39 327 324 285 119 26 62 24 327 237 243 213 196 248 45 18 34 13 322 234 233 236 239 213 189 187 198 203 209 209 211 210 215 219 213 214 218 224 221 223 218 221 220 222
107 249 194 225 257 277 286 338 293 316 194 109 214 225 63 26 8 4 3 26 41 61 154 160 154 154 159 160 176 190 203 207 211 211 211 212 218 220 219 219 220 218 223 218
175 250 214 242 203 242 275 285 286 252 272 234 357 262 149 34 356 360 353 359 12 24 48 96 110 132 146 153 137 177 191 201 205 207 211 216 220 220 219 217 217 217 223 222
214 273 332 284 255 221 246 251 236 249 247 266 267 284 262 96 44 352 353 352 345 9 18 22 88 106 141 170 183 169 187 197 201 208 212 214 218 218 217 216 218 218 220 218
214 192 338 276 27 318 263 235 221 209 207 228 265 239 354 350 341 22 325 333 332 351 358 3 4 176 169 189 209 207 202 214 219 217 220 219 215 218 221 219 215 217 215 215
247 174 145 256 348 268 251 300 229 209 226 224 247 269 261 207 288 256 345 352 330 332 330 340 348 228 208 176 185 202 213 222 239 241 226 226 225 221 220 216 214 213 215 216
227 172 265 191 224 286 295 274 248 221 246 234 240 240 252 174 245 289 164 280 280 309 326 305 312 317 209 206 207 220 223 233 246 236 216 215 221 213 204 204 206 213 203 204
225 208 187 196 228 243 243 312 81 128 289 225 216 357 283 130 162 217 99 209 315 338 314 291 312 294 276 215 208 216 224 233 256 247 225 215 220 223 215 205 201 201 208 199
258 174 213 219 240 269 269 259 289 238 239 6 107 147 105 133 184 288 321 335 271 247 300 310 311 287 286 286 225 217 227 234 254 239 227 216 217 222 221 218 205 205 200 203
248 242 211 188 218 254 287 115 33 246 329 341 355 19 37 17 236 211 244 302 295 277 293 296 282 269 247 276 244 230 237 258 242 240 232 220 216 219 221 215 207 203 206 207
254 221 248 197 215 280 338 34 333 302 286 317 317 324 331 310 304 294 290 283 299 283 286 301 294 296 294 307 29 276 246 238 245 238 234 225 216 214 217 212 206 203 207 209
247 303 211 319 256 287 312 293 299 291 299 309 312 302 298 293 298 285 263 264 283 277 277 294 292 291 299 308 318 316 339 241 233 237 233 223 216 209 211 209 210 209 207 209
248 295 274 267 258 261 269 264 268 290 293 303 297 308 318 320 322 296 281 272 259 263 265 273 284 290 295 297 298 323 321 276 233 228 224 219 215 210 210 211 213 215 220 221
214 237 237 272 287 289 292 327 338 302 301 309 311 302 295 295 291 296 304 308 297 275 257 256 270 277 282 291 298 298 310 299 247 237 225 220 218 213 213 212 208 214 221 222